Temp
50 50 50 51 51 50 51 51 53 52 51 52 50 50 50 47 44 44 44 44 47 51 56 56 57 62 61 59 60 61 61 61 61 60 59 59 59 58 57 55 53 52 51 51 51 51 51 52 53 55 57 57 58 58 57 57 56 56 57 58 58 57 56 57 57 61 65 67 66 64 63 62 61 59
51 51 50 50 50 50 50 50 50 50 50 50 51 50 49 48 48 45 45 44 45 48 50 54 56 59 60 60 60 60 60 59 61 60 60 59 58 56 56 57 55 53 51 51 49 49 50 51 53 54 56 55 56 56 56 55 55 56 57 57 57 58 58 58 59 61 63 64 63 61 61 61 61 60
52 50 50 50 51 50 50 50 51 50 50 51 49 50 50 49 47 45 45 45 45 50 52 49 54 55 56 60 57 58 58 61 60 59 58 60 58 57 59 57 57 56 55 52 49 49 51 50 50 52 53 54 54 54 54 56 56 56 56 54 55 57 59 59 59 61 62 63 63 62 61 61 61 60
51 50 50 50 51 50 50 51 51 51 51 51 52 50 50 49 48 45 46 47 48 47 52 51 52 55 54 56 56 55 58 60 58 56 57 59 57 60 59 58 57 56 55 54 53 53 53 52 51 52 52 52 52 53 53 55 55 54 53 54 55 56 57 58 58 60 61 61 62 61 60 60 61 60
50 50 50 51 52 49 50 49 51 52 51 51 51 51 50 50 50 49 48 48 48 48 46 49 53 55 54 56 54 55 54 55 57 58 56 56 56 59 59 59 56 55 54 53 52 52 51 50 50 49 48 49 50 49 50 51 51 52 52 51 51 53 55 57 58 58 60 61 60 59 59 60 60 59
52 49 50 52 52 50 50 49 53 51 51 52 52 51 52 49 51 49 50 47 46 48 48 50 52 54 54 54 56 54 54 55 56 57 58 59 58 60 59 59 59 56 55 52 52 51 51 51 50 49 48 48 49 49 50 50 49 50 49 48 49 52 54 55 55 55 57 59 59 59 59 59 59 59
51 50 50 50 50 51 50 49 48 49 50 51 51 49 50 49 48 49 49 48 46 45 47 45 51 51 52 50 55 57 57 56 56 56 57 58 59 60 58 58 60 56 53 52 52 52 53 52 51 51 50 50 49 48 48 48 48 48 47 47 48 49 49 49 50 51 51 55 57 58 58 57 58 59
52 52 50 51 50 50 50 49 48 49 49 49 49 48 48 48 48 48 48 48 47 44 46 44 50 50 49 50 55 56 57 55 55 56 56 57 57 56 57 57 58 58 55 54 54 53 53 52 52 52 52 52 50 49 50 49 48 47 47 47 47 47 47 47 47 48 50 52 55 57 57 57 58 60
53 52 53 51 50 49 50 49 49 48 48 49 49 48 48 48 47 48 47 46 46 45 45 45 43 47 49 51 52 53 52 53 54 54 54 54 54 53 54 55 58 55 55 55 55 53 53 52 52 52 52 51 51 50 50 49 48 48 48 48 47 47 47 47 47 47 47 48 49 53 56 56 58 62
53 53 52 51 51 51 51 49 47 47 47 48 48 47 46 46 46 45 46 46 45 45 43 44 44 44 47 48 47 51 51 49 49 49 51 51 52 50 50 52 55 56 57 54 55 53 52 52 52 52 52 51 50 51 50 50 50 49 48 48 47 47 47 47 46 46 46 46 46 47 51 54 57 60
53 53 53 51 51 51 51 50 49 48 49 49 49 48 46 44 43 43 43 44 44 42 43 41 41 43 45 44 45 49 49 49 47 46 46 46 49 48 47 48 52 53 52 51 51 51 51 51 52 51 52 52 51 51 50 51 51 50 48 47 47 47 47 47 47 47 47 46 46 46 46 48 53 56
53 53 53 52 52 52 51 51 49 50 49 50 49 48 48 45 42 41 41 41 40 41 41 41 40 40 40 43 43 46 46 46 46 47 44 43 43 45 46 46 47 49 48 48 50 52 52 51 52 52 52 52 51 51 51 52 52 51 49 49 48 48 48 47 47 47 47 47 46 46 46 46 46 50
53 53 53 53 51 54 55 53 51 51 51 50 50 47 47 45 45 41 39 40 40 40 40 40 40 39 40 39 41 42 41 41 42 43 42 42 43 44 45 47 47 46 46 47 47 49 48 49 49 51 51 52 52 53 52 52 53 52 50 49 48 49 48 48 48 47 48 47 47 46 46 46 46 45
53 53 53 54 57 55 53 50 47 46 47 49 50 48 47 48 45 43 42 40 40 41 40 39 38 39 39 38 39 40 41 42 43 42 41 41 43 43 43 45 43 45 45 44 45 46 49 48 48 49 49 51 51 51 52 53 52 51 50 49 49 49 48 48 48 48 48 48 47 47 46 46 45 45
54 53 53 53 55 53 51 50 45 45 44 44 45 45 47 47 46 43 43 40 41 42 40 39 38 37 38 40 40 39 41 42 42 39 40 40 41 40 38 38 43 43 44 43 42 44 47 47 46 47 48 49 50 51 52 51 50 50 50 50 50 49 49 49 48 48 48 48 48 47 47 46 46 45
55 54 52 52 53 53 53 52 49 46 43 43 43 43 43 43 44 45 45 43 41 39 40 39 39 37 38 39 39 40 39 40 40 40 40 40 39 39 39 38 39 43 44 42 42 42 45 44 45 45 47 49 49 50 50 49 49 49 49 49 49 49 49 49 48 48 48 47 47 46 46 46 45 44
54 53 52 52 52 54 54 53 51 50 46 43 42 43 43 42 41 39 39 42 44 41 39 39 38 38 38 38 39 41 41 41 39 40 39 39 38 38 38 39 41 43 43 42 41 41 44 43 43 43 46 47 48 49 49 49 49 48 48 49 48 48 47 48 48 47 47 47 46 46 46 45 44 44
54 54 53 52 51 52 53 52 51 50 47 46 46 46 44 42 43 42 40 39 39 41 42 40 39 39 40 40 39 41 40 39 38 38 38 38 38 38 39 41 41 43 44 42 40 40 41 42 42 41 44 46 47 47 48 48 48 48 48 47 47 46 45 45 45 45 45 45 45 44 44 44 43 43
54 53 53 52 52 51 50 51 50 48 48 47 45 44 43 41 39 39 40 39 38 38 38 38 38 38 38 38 39 38 38 38 39 39 38 38 38 39 39 40 40 41 41 41 38 37 39 39 41 42 43 45 45 46 47 48 48 47 46 45 44 43 43 43 43 43 43 43 43 43 43 42 42 42
49 49 50 49 49 48 49 47 45 46 45 44 44 43 40 38 38 38 42 41 41 40 38 38 39 38 38 40 39 40 39 39 38 39 39 38 37 37 36 36 38 38 37 41 39 38 38 38 41 42 43 43 43 45 45 46 46 46 45 44 43 43 43 43 42 42 43 43 43 43 42 42 41 41
50 50 49 49 49 47 43 40 40 42 45 46 44 42 39 39 40 40 42 41 40 40 40 40 40 39 39 39 40 39 40 39 39 36 34 35 35 34 33 35 36 37 37 37 39 40 39 39 40 40 41 41 41 42 43 43 44 46 45 44 43 43 43 42 42 42 42 42 42 42 41 42 41 41
47 48 53 49 47 44 42 38 39 40 43 41 40 40 40 40 39 40 39 39 38 40 40 39 39 39 39 40 40 40 41 40 41 35 33 35 33 33 33 32 34 36 38 38 42 38 37 38 37 38 40 40 38 41 42 40 44 45 45 45 43 42 43 43 43 42 42 42 42 43 42 41 41 43
42 42 45 46 44 44 41 38 39 39 41 39 39 40 40 39 38 37 34 34 34 34 35 35 36 36 39 39 37 39 40 40 41 38 36 35 33 32 33 34 34 33 33 36 39 36 37 37 37 38 39 37 38 41 40 43 43 41 43 44 44 43 42 42 42 42 42 42 42 42 41 41 41 43
41 41 42 41 38 38 38 38 38 39 40 39 38 38 37 37 35 33 32 34 34 32 34 33 33 34 34 34 35 35 36 38 40 38 37 36 35 34 33 34 34 32 35 37 40 39 40 40 39 40 39 36 32 36 41 40 39 40 41 43 45 43 42 42 42 42 41 42 42 41 41 41 41 43
41 39 39 39 39 38 38 38 37 38 38 39 38 37 36 36 35 36 33 33 39 33 32 33 34 34 33 33 34 34 35 36 37 38 38 37 36 35 34 33 34 36 39 42 43 42 40 42 41 42 40 38 38 37 37 38 39 40 41 41 43 44 43 43 42 42 42 42 41 41 41 41 41 42
41 41 40 38 38 38 38 37 38 38 37 37 40 38 37 37 37 34 34 33 33 33 33 31 31 32 31 32 33 34 35 36 38 37 37 37 37 37 37 36 36 36 38 45 43 44 42 40 42 41 41 40 40 40 39 38 39 40 38 39 41 41 41 41 40 40 41 41 41 41 41 40 41 41
41 40 39 40 39 37 37 37 37 38 37 38 37 37 36 36 36 36 33 32 32 31 31 32 31 31 31 32 32 34 34 36 37 38 39 39 39 39 40 40 40 40 41 43 45 45 43 41 43 41 40 41 39 40 39 36 34 37 39 38 39 40 39 39 39 38 39 40 40 41 40 39 39 39
41 40 40 40 37 37 37 37 37 37 37 36 36 36 36 36 36 34 33 32 32 31 32 30 30 31 32 33 35 37 37 38 38 40 41 41 41 41 41 42 42 42 42 42 43 44 43 42 42 43 42 40 38 37 37 41 39 37 37 34 36 39 39 38 37 37 36 36 38 38 39 39 40 40
41 40 39 38 38 37 37 37 38 38 38 37 36 36 36 38 34 32 31 31 31 29 30 30 32 32 34 36 37 38 37 38 37 37 38 39 40 41 41 41 41 42 43 43 42 42 43 42 42 43 42 42 40 40 40 39 41 41 39 38 36 34 37 39 38 35 34 32 33 34 35 36 37 39
37 37 37 38 38 39 39 37 37 36 36 37 37 37 38 34 32 32 30 30 30 30 31 31 32 33 32 33 35 35 35 34 34 34 35 34 35 36 37 37 37 38 39 40 41 41 41 41 42 42 41 42 41 40 41 40 39 41 40 38 38 37 35 36 34 33 35 34 33 33 33 34 35 38
40 39 39 38 37 38 37 36 36 36 36 34 35 32 32 31 31 32 31 31 32 31 31 31 32 32 33 34 33 32 32 33 33 35 36 36 36 37 37 36 35 35 37 38 39 40 40 41 42 43 40 40 41 41 42 42 39 40 40 39 38 36 37 37 37 36 34 33 32 34 33 34 36 38
39 37 37 37 36 36 35 35 34 33 32 32 32 32 30 31 31 35 37 37 32 31 32 32 32 31 32 31 32 32 32 32 33 34 34 34 34 34 35 33 33 34 35 36 36 37 38 41 42 42 42 40 38 39 41 40 38 38 38 39 38 39 40 39 40 39 37 35 34 34 33 35 35 36
36 37 37 34 33 32 34 32 32 29 28 29 29 31 32 32 32 32 30 31 31 32 32 31 31 31 30 31 31 32 32 32 32 33 32 33 33 35 34 32 33 33 32 33 34 36 37 40 41 42 41 41 41 40 38 35 37 39 38 38 38 38 38 39 39 39 36 36 33 33 34 36 38 38
33 32 32 31 31 31 29 27 26 25 26 26 29 27 31 30 29 29 29 29 30 31 31 30 30 30 31 31 33 33 33 34 34 34 34 34 35 33 32 32 32 34 34 34 35 35 37 38 39 40 40 40 41 41 40 37 36 38 38 37 37 37 38 39 39 39 38 36 34 33 34 34 36 38
32 33 32 28 26 25 25 25 26 26 27 27 28 28 28 29 29 30 29 30 30 30 30 30 30 30 31 32 33 33 33 33 34 34 34 34 34 33 32 32 32 33 33 33 34 36 36 36 36 35 35 36 36 38 42 42 38 37 37 37 37 37 37 38 38 38 38 36 36 34 33 34 34 37
29 26 26 25 27 24 26 27 26 25 26 26 27 27 27 29 29 29 29 31 30 30 31 31 31 32 32 33 33 33 33 33 33 33 33 33 33 33 33 32 32 33 34 34 34 36 35 35 34 32 31 32 32 31 33 41 42 39 36 35 37 37 37 38 38 38 37 36 36 35 34 33 34 35
26 23 23 25 27 25 27 26 25 26 27 27 28 28 28 28 29 30 30 31 31 30 31 32 32 32 32 33 33 33 33 33 32 33 33 33 33 33 32 32 33 33 33 34 35 35 35 33 34 32 31 30 30 29 32 36 38 42 39 36 36 37 37 36 36 36 36 37 35 35 34 34 33 34
25 25 26 28 27 27 27 26 26 26 26 28 28 29 29 30 30 31 33 32 32 32 32 32 32 32 32 33 32 32 33 33 33 32 32 32 32 32 32 32 32 32 33 34 34 34 34 33 33 33 32 30 29 30 31 34 34 36 39 38 36 36 35 35 35 35 34 35 34 34 34 34 33 34
27 26 26 27 28 27 26 26 26 27 30 30 30 30 30 31 32 33 33 33 33 33 33 33 33 33 33 32 32 32 32 32 32 32 32 32 32 32 32 32 32 33 32 32 33 33 34 33 33 33 33 32 31 32 33 32 33 35 36 39 38 36 35 36 35 35 34 33 32 33 33 33 34 35
27 27 27 27 30 28 28 26 28 30 30 30 30 30 31 32 33 33 33 33 33 33 33 33 33 33 33 33 32 33 32 32 32 32 32 32 32 32 32 32 32 32 32 32 32 33 33 33 33 33 33 34 35 36 36 35 35 35 35 35 37 37 36 36 35 34 33 33 33 32 31 33 32 32
29 27 27 27 29 29 29 29 29 31 31 31 31 32 32 33 33 33 33 33 33 33 32 33 32 32 32 33 33 32 31 32 32 32 32 32 32 32 32 32 32 32 31 31 32 32 33 34 35 35 36 36 35 35 33 32 32 34 35 35 36 37 37 38 37 35 34 33 33 33 32 31 31 32
28 27 28 29 29 29 30 30 31 31 31 31 31 32 33 33 33 34 33 33 33 33 32 32 32 33 32 33 33 32 31 31 31 32 32 32 32 32 32 32 31 32 31 31 32 33 34 35 35 34 34 34 33 31 30 32 32 34 33 33 33 36 38 38 38 37 36 35 34 32 31 31 32 30
28 27 27 27 28 29 28 30 31 31 31 31 32 33 33 32 33 33 32 32 33 32 32 32 33 33 33 33 33 32 32 31 32 32 32 32 32 31 31 32 32 32 32 33 34 34 35 34 34 33 33 33 32 32 31 33 33 33 32 32 32 33 35 37 37 37 37 37 36 35 34 33 31 28
27 27 27 28 28 28 29 30 30 30 31 31 32 33 32 32 32 33 33 32 32 32 32 32 32 32 32 32 32 32 32 32 32 32 32 32 32 32 32 32 32 32 33 33 33 33 34 34 33 33 32 32 33 32 32 33 32 33 33 32 32 32 32 33 34 35 35 35 35 36 36 35 34 35
26 26 27 28 28 26 29 30 30 30 30 31 32 33 33 33 32 33 33 33 32 32 32 32 32 32 32 32 32 31 32 33 33 32 32 32 32 32 32 32 32 32 32 33 32 32 33 33 33 33 32 33 33 33 33 33 33 33 32 32 31 32 32 33 32 32 32 32 33 35 34 35 35 34
MSLP
1020.54 1020.58 1020.54 1020.58 1020.62 1020.62 1020.54 1020.50 1020.50 1020.54 1020.58 1020.62 1020.70 1020.66 1020.66 1020.86 1020.86 1021.02 1020.86 1021.38 1021.06 1020.74 1020.62 1020.62 1020.06 1020.06 1020.10 1020.06 1019.94 1019.86 1019.82 1019.82 1019.74 1019.66 1019.58 1019.54 1019.46 1019.38 1019.30 1019.18 1019.10 1019.02 1019.02 1019.02 1019.02 1018.98 1018.98 1018.94 1018.90 1018.86 1018.82 1018.78 1018.78 1018.82 1018.90 1018.90 1018.90 1018.90 1019.06 1019.06 1019.06 1019.10 1019.22 1019.38 1019.34 1019.14 1019.34 1019.54 1019.70 1019.86 1020.02 1020.18 1020.50 1020.82
1020.62 1020.70 1020.74 1020.70 1020.70 1020.74 1020.66 1020.66 1020.66 1020.66 1020.62 1020.66 1020.70 1020.74 1020.74 1020.74 1020.90 1021.22 1021.18 1021.22 1021.22 1020.94 1020.82 1020.70 1020.62 1020.22 1020.22 1020.18 1020.10 1020.06 1020.06 1019.94 1019.86 1019.78 1019.70 1019.62 1019.50 1019.38 1019.30 1019.22 1019.14 1019.06 1019.02 1018.98 1018.98 1018.94 1018.94 1018.90 1018.90 1018.86 1018.82 1018.78 1018.74 1018.70 1018.74 1018.74 1018.78 1018.78 1018.78 1018.78 1018.94 1018.98 1019.06 1018.98 1019.06 1019.10 1019.14 1019.14 1019.26 1019.42 1019.58 1019.74 1019.94 1020.26
1020.58 1020.70 1020.78 1020.82 1020.86 1020.86 1020.82 1020.82 1020.82 1020.78 1020.82 1020.82 1020.82 1020.86 1020.90 1020.94 1020.94 1021.06 1021.22 1021.30 1021.02 1021.30 1020.94 1020.86 1020.78 1020.66 1020.46 1020.42 1020.38 1020.22 1020.14 1020.02 1019.98 1019.86 1019.78 1019.62 1019.46 1019.34 1019.18 1019.06 1018.98 1018.94 1018.94 1018.90 1018.90 1018.86 1018.86 1018.90 1018.94 1018.94 1018.90 1018.86 1018.78 1018.78 1018.78 1018.82 1018.78 1018.74 1018.66 1018.66 1018.74 1018.82 1018.86 1018.98 1018.98 1018.78 1018.70 1019.02 1019.10 1019.10 1019.30 1019.46 1019.50 1019.70
1020.66 1020.74 1020.78 1020.86 1020.94 1020.98 1020.98 1021.02 1021.02 1020.94 1020.94 1020.90 1020.86 1021.02 1021.06 1021.14 1021.14 1021.14 1021.26 1021.38 1021.14 1020.98 1020.90 1020.98 1020.94 1020.82 1020.78 1020.58 1020.50 1020.42 1020.30 1020.10 1020.02 1019.90 1019.78 1019.62 1019.50 1019.34 1019.22 1019.02 1018.90 1018.78 1018.74 1018.74 1018.78 1018.82 1018.78 1018.74 1018.74 1018.74 1018.74 1018.74 1018.78 1018.74 1018.74 1018.66 1018.58 1018.54 1018.54 1018.58 1018.58 1018.62 1018.70 1018.86 1018.82 1018.78 1018.74 1018.66 1018.70 1018.94 1019.10 1019.14 1019.30 1019.42
1020.66 1020.78 1020.86 1020.98 1021.06 1021.06 1021.06 1021.18 1021.14 1021.10 1021.14 1021.06 1021.10 1021.14 1021.14 1021.26 1021.50 1021.50 1021.38 1021.42 1021.30 1020.94 1021.10 1020.98 1020.86 1020.74 1020.62 1020.50 1020.54 1020.42 1020.34 1020.14 1019.90 1019.78 1019.70 1019.58 1019.46 1019.30 1019.14 1019.06 1018.90 1018.78 1018.70 1018.66 1018.62 1018.54 1018.62 1018.66 1018.66 1018.66 1018.62 1018.62 1018.58 1018.54 1018.50 1018.50 1018.50 1018.54 1018.54 1018.50 1018.46 1018.46 1018.54 1018.62 1018.66 1018.62 1018.50 1018.58 1018.90 1018.98 1019.06 1018.98 1018.98 1019.14
1020.62 1020.74 1020.86 1021.02 1021.06 1021.06 1021.10 1021.14 1021.22 1021.30 1021.30 1021.30 1021.26 1021.38 1021.46 1021.58 1021.74 1021.86 1021.62 1021.70 1021.66 1021.34 1021.18 1020.98 1020.94 1020.78 1020.78 1020.66 1020.42 1020.38 1020.26 1020.10 1019.94 1019.74 1019.54 1019.38 1019.34 1019.26 1019.18 1019.10 1018.98 1018.82 1018.74 1018.74 1018.70 1018.70 1018.62 1018.54 1018.50 1018.46 1018.42 1018.38 1018.34 1018.26 1018.22 1018.22 1018.26 1018.30 1018.30 1018.34 1018.46 1018.42 1018.30 1018.30 1018.34 1018.42 1018.38 1018.38 1018.46 1018.54 1018.62 1018.70 1018.78 1018.90
1020.54 1020.66 1020.74 1020.90 1021.02 1021.06 1021.06 1021.18 1021.30 1021.38 1021.38 1021.46 1021.50 1021.66 1021.86 1021.78 1021.98 1022.10 1022.06 1021.90 1021.90 1021.78 1021.62 1021.50 1021.34 1021.22 1021.14 1021.06 1020.74 1020.50 1020.42 1020.34 1020.22 1020.02 1019.78 1019.66 1019.50 1019.38 1019.38 1019.34 1019.18 1019.02 1018.90 1018.82 1018.78 1018.70 1018.66 1018.58 1018.50 1018.42 1018.34 1018.26 1018.22 1018.14 1018.14 1018.10 1018.06 1018.06 1018.10 1018.14 1018.14 1018.14 1018.22 1018.18 1018.10 1018.10 1018.18 1018.22 1018.18 1018.22 1018.30 1018.42 1018.50 1018.58
1020.42 1020.54 1020.70 1020.82 1020.90 1020.94 1021.02 1021.14 1021.34 1021.42 1021.50 1021.54 1021.62 1021.74 1022.10 1022.06 1022.10 1022.22 1022.18 1022.26 1022.30 1022.26 1022.22 1021.78 1021.74 1021.70 1021.62 1021.26 1021.06 1020.90 1020.70 1020.58 1020.42 1020.30 1020.14 1019.90 1019.82 1019.78 1019.70 1019.66 1019.50 1019.30 1019.14 1018.98 1018.86 1018.82 1018.74 1018.70 1018.62 1018.54 1018.42 1018.34 1018.26 1018.22 1018.18 1018.14 1018.10 1018.10 1018.06 1018.06 1018.06 1018.02 1017.94 1017.90 1017.94 1017.90 1017.86 1017.86 1017.90 1017.90 1017.98 1018.06 1018.14 1018.26
1020.30 1020.46 1020.54 1020.74 1020.86 1020.94 1020.98 1021.14 1021.26 1021.38 1021.46 1021.62 1021.66 1021.78 1021.98 1022.02 1022.26 1022.34 1022.46 1022.50 1022.54 1022.42 1022.38 1022.38 1022.02 1022.02 1021.86 1021.74 1021.58 1021.42 1021.34 1020.94 1020.66 1020.50 1020.54 1020.46 1020.34 1020.18 1020.06 1019.90 1019.70 1019.50 1019.26 1019.10 1019.02 1018.94 1018.86 1018.82 1018.74 1018.62 1018.54 1018.38 1018.30 1018.22 1018.18 1018.10 1018.02 1017.98 1017.94 1017.94 1017.94 1017.98 1017.98 1018.02 1017.98 1017.90 1017.82 1017.66 1017.62 1017.62 1017.66 1017.70 1017.78 1017.86
1020.18 1020.26 1020.34 1020.58 1020.70 1020.82 1020.90 1021.06 1021.30 1021.42 1021.58 1021.74 1021.90 1022.06 1022.18 1022.30 1022.34 1022.34 1022.42 1022.50 1022.50 1022.50 1022.54 1022.66 1022.30 1022.22 1022.30 1022.02 1021.94 1021.82 1021.82 1021.66 1021.22 1021.02 1020.82 1020.62 1020.54 1020.62 1020.38 1020.18 1019.98 1019.82 1019.66 1019.50 1019.26 1019.10 1018.98 1018.90 1018.78 1018.70 1018.58 1018.46 1018.38 1018.26 1018.14 1018.02 1017.90 1017.86 1017.82 1017.86 1017.86 1017.86 1017.82 1017.82 1017.82 1017.82 1017.90 1017.98 1017.98 1017.82 1017.62 1017.46 1017.46 1017.50
1019.98 1020.10 1020.26 1020.42 1020.54 1020.58 1020.70 1020.90 1021.14 1021.38 1021.62 1021.74 1021.98 1022.14 1022.30 1022.46 1022.50 1022.66 1022.78 1022.86 1022.82 1022.90 1022.86 1022.74 1022.82 1022.78 1022.66 1022.78 1022.42 1022.02 1022.10 1021.86 1021.78 1021.74 1021.34 1021.02 1020.86 1020.94 1020.98 1020.66 1020.30 1020.06 1019.86 1019.66 1019.66 1019.58 1019.50 1019.26 1019.02 1018.86 1018.66 1018.46 1018.34 1018.18 1018.06 1017.94 1017.82 1017.74 1017.74 1017.74 1017.70 1017.62 1017.58 1017.50 1017.50 1017.54 1017.54 1017.58 1017.58 1017.62 1017.70 1017.74 1017.62 1017.42
1019.82 1019.94 1020.06 1020.18 1020.30 1020.38 1020.54 1020.70 1020.94 1021.10 1021.38 1021.66 1021.78 1022.14 1022.26 1022.46 1022.58 1022.74 1022.98 1023.06 1023.14 1023.18 1023.26 1023.38 1023.22 1023.22 1023.06 1022.86 1022.82 1022.54 1022.14 1021.82 1021.66 1021.90 1022.06 1021.74 1021.34 1021.18 1021.02 1020.94 1020.62 1020.26 1020.22 1020.02 1019.74 1019.46 1019.26 1019.02 1018.90 1018.74 1018.58 1018.46 1018.34 1018.18 1018.06 1017.90 1017.82 1017.70 1017.66 1017.58 1017.54 1017.46 1017.34 1017.26 1017.22 1017.18 1017.18 1017.18 1017.22 1017.26 1017.26 1017.26 1017.26 1017.26
1019.74 1019.82 1019.94 1019.98 1020.10 1020.26 1020.38 1020.54 1020.74 1020.90 1021.06 1021.26 1021.54 1022.02 1022.18 1022.34 1022.50 1022.74 1022.90 1023.10 1023.14 1023.30 1023.38 1023.46 1023.66 1023.50 1023.34 1023.26 1023.06 1022.74 1022.66 1022.70 1022.62 1022.26 1022.30 1022.02 1021.70 1021.46 1020.98 1020.58 1020.50 1020.46 1020.22 1020.10 1019.94 1019.86 1019.82 1019.58 1019.34 1019.06 1018.74 1018.46 1018.26 1018.02 1017.90 1017.74 1017.62 1017.54 1017.50 1017.46 1017.34 1017.22 1017.14 1017.06 1016.94 1016.86 1016.82 1016.78 1016.78 1016.82 1016.86 1016.86 1016.86 1016.90
1019.62 1019.62 1019.70 1019.82 1019.90 1020.06 1020.26 1020.46 1020.74 1020.94 1021.06 1021.14 1021.34 1021.70 1021.98 1022.18 1022.42 1022.62 1022.74 1022.86 1023.10 1023.26 1023.34 1023.38 1023.46 1023.42 1023.38 1023.42 1023.34 1023.26 1022.98 1022.90 1022.66 1022.42 1022.26 1022.10 1021.70 1021.54 1021.22 1020.62 1020.38 1020.34 1020.30 1020.18 1019.98 1019.86 1019.78 1019.70 1019.42 1019.26 1019.02 1018.66 1018.46 1018.26 1017.94 1017.70 1017.46 1017.26 1017.14 1017.06 1016.98 1016.86 1016.82 1016.74 1016.66 1016.58 1016.50 1016.42 1016.34 1016.34 1016.34 1016.38 1016.42 1016.46
1019.50 1019.58 1019.62 1019.66 1019.74 1019.90 1020.18 1020.46 1020.66 1020.90 1021.10 1021.22 1021.38 1021.58 1021.78 1022.02 1022.18 1022.46 1022.66 1022.78 1023.10 1023.26 1023.26 1023.26 1023.38 1023.50 1023.46 1023.30 1023.38 1023.30 1023.06 1022.86 1022.74 1022.54 1022.50 1022.46 1022.18 1022.02 1021.94 1021.26 1020.14 1020.34 1020.34 1020.22 1020.14 1019.78 1019.66 1019.58 1019.42 1019.18 1019.10 1018.82 1018.58 1018.34 1018.06 1017.74 1017.46 1017.22 1016.98 1016.74 1016.62 1016.58 1016.46 1016.34 1016.26 1016.22 1016.14 1016.06 1015.98 1015.90 1015.86 1015.90 1015.98 1016.02
1019.10 1019.22 1019.46 1019.66 1019.82 1019.98 1020.14 1020.42 1020.74 1020.98 1021.14 1021.18 1021.30 1021.46 1021.74 1022.02 1022.22 1022.38 1022.50 1022.62 1022.94 1023.10 1023.10 1023.14 1023.22 1023.42 1023.42 1023.26 1023.22 1023.14 1022.98 1022.78 1022.70 1022.66 1022.66 1022.58 1022.46 1022.22 1022.06 1021.82 1021.42 1020.38 1020.46 1020.54 1020.30 1019.62 1019.42 1019.38 1019.34 1019.14 1018.90 1018.74 1018.58 1018.34 1018.06 1017.74 1017.46 1017.22 1016.98 1016.74 1016.54 1016.30 1016.18 1016.02 1015.86 1015.74 1015.66 1015.62 1015.58 1015.46 1015.38 1015.42 1015.50 1015.62
1018.86 1019.18 1019.42 1019.66 1019.86 1019.94 1020.06 1020.26 1020.58 1020.86 1021.14 1021.34 1021.34 1021.50 1021.82 1022.06 1022.22 1022.34 1022.54 1022.78 1022.82 1022.98 1023.18 1023.22 1023.18 1023.22 1023.14 1023.14 1023.06 1023.02 1023.02 1023.02 1023.06 1022.78 1022.70 1022.58 1022.46 1022.34 1022.18 1021.74 1021.26 1020.70 1020.74 1020.78 1020.50 1019.62 1019.14 1019.30 1019.14 1019.10 1018.74 1018.62 1018.42 1018.14 1017.90 1017.66 1017.42 1017.18 1016.90 1016.66 1016.46 1016.26 1016.02 1015.82 1015.66 1015.46 1015.30 1015.18 1015.06 1015.06 1015.02 1014.98 1015.10 1015.26
1018.78 1018.94 1019.14 1019.42 1019.74 1020.02 1020.26 1020.42 1020.62 1020.78 1020.94 1021.22 1021.46 1021.58 1021.78 1021.90 1022.14 1022.42 1022.58 1022.74 1022.90 1023.10 1023.14 1023.10 1023.02 1022.86 1023.18 1023.26 1023.18 1023.22 1023.22 1023.18 1023.10 1022.98 1022.82 1022.70 1022.54 1022.30 1021.98 1021.50 1021.30 1020.78 1020.82 1020.78 1020.46 1019.82 1019.22 1019.14 1019.06 1018.98 1018.66 1018.46 1018.18 1018.06 1017.78 1017.50 1017.26 1017.02 1016.82 1016.66 1016.50 1016.26 1015.98 1015.70 1015.50 1015.30 1015.14 1015.02 1014.86 1014.82 1014.82 1014.82 1014.86 1014.90
1018.58 1018.82 1019.02 1019.22 1019.54 1020.02 1020.30 1020.46 1020.54 1020.70 1020.86 1021.06 1021.26 1021.46 1021.58 1021.90 1022.26 1022.46 1022.54 1022.78 1022.98 1023.22 1023.38 1023.38 1023.38 1023.38 1023.38 1023.38 1023.30 1023.22 1023.14 1023.14 1023.06 1022.98 1022.82 1022.66 1022.50 1022.18 1021.70 1021.34 1021.06 1020.70 1020.54 1020.38 1020.38 1019.82 1019.18 1019.10 1018.98 1018.70 1018.58 1018.30 1018.14 1017.94 1017.62 1017.30 1017.06 1016.98 1016.90 1016.74 1016.50 1016.18 1015.90 1015.62 1015.42 1015.18 1015.02 1014.90 1014.78 1014.70 1014.66 1014.66 1014.70 1014.82
1018.94 1019.10 1019.30 1019.58 1019.90 1020.18 1020.38 1020.54 1020.66 1020.82 1020.98 1021.14 1021.30 1021.58 1021.94 1022.18 1022.38 1022.50 1022.98 1023.06 1023.14 1023.26 1023.38 1023.46 1023.42 1023.34 1023.30 1023.26 1023.18 1023.10 1022.98 1022.90 1022.82 1022.70 1022.58 1022.50 1022.30 1022.02 1021.66 1021.22 1020.74 1020.74 1020.34 1020.22 1020.10 1019.70 1019.22 1019.10 1018.98 1018.38 1018.34 1018.26 1018.06 1017.78 1017.54 1017.22 1017.06 1016.94 1016.82 1016.62 1016.34 1016.06 1015.74 1015.54 1015.38 1015.18 1015.02 1014.90 1014.78 1014.70 1014.66 1014.62 1014.66 1014.74
1018.94 1019.10 1019.38 1019.54 1019.86 1020.22 1020.54 1020.82 1020.78 1020.86 1020.94 1021.22 1021.46 1021.70 1021.98 1022.34 1022.46 1022.54 1022.86 1023.02 1023.10 1023.18 1023.22 1023.22 1023.22 1023.18 1023.14 1023.06 1022.94 1022.86 1022.74 1022.66 1022.54 1022.54 1022.50 1022.34 1022.14 1022.06 1021.74 1020.94 1020.90 1020.46 1020.30 1019.98 1019.86 1019.58 1019.14 1018.94 1018.82 1018.50 1018.26 1018.06 1017.86 1017.62 1017.34 1017.14 1017.06 1016.90 1016.74 1016.54 1016.22 1015.90 1015.66 1015.42 1015.22 1015.10 1015.06 1014.98 1014.82 1014.70 1014.66 1014.70 1014.70 1014.70
1019.30 1019.46 1019.46 1019.78 1020.18 1020.54 1020.98 1021.18 1021.14 1021.26 1021.26 1021.54 1021.82 1021.98 1022.22 1022.34 1022.46 1022.54 1022.86 1022.94 1022.90 1022.98 1022.98 1022.94 1022.94 1022.94 1022.86 1022.78 1022.66 1022.54 1022.42 1022.34 1022.26 1022.38 1022.50 1022.22 1022.14 1022.10 1021.94 1021.42 1020.86 1020.42 1020.30 1019.98 1019.58 1019.42 1019.06 1018.82 1018.66 1018.38 1017.90 1017.78 1017.54 1017.38 1017.14 1017.10 1016.94 1016.82 1016.66 1016.46 1016.22 1016.06 1015.90 1015.66 1015.42 1015.30 1015.18 1015.10 1015.02 1014.90 1014.78 1014.70 1014.66 1014.70
1020.02 1020.18 1020.22 1020.10 1020.26 1020.66 1021.10 1021.22 1021.30 1021.38 1021.50 1021.74 1021.90 1022.06 1022.18 1022.30 1022.42 1022.54 1022.90 1022.94 1022.94 1022.94 1022.94 1022.94 1022.98 1022.94 1022.86 1022.78 1022.74 1022.58 1022.38 1022.22 1022.10 1022.06 1022.06 1021.94 1022.02 1021.94 1021.70 1021.42 1020.98 1020.58 1019.94 1019.54 1019.42 1019.38 1018.74 1018.74 1018.38 1018.30 1017.90 1017.70 1017.22 1017.02 1017.06 1016.94 1016.82 1016.78 1016.62 1016.38 1016.18 1016.06 1015.98 1015.74 1015.54 1015.38 1015.18 1015.02 1014.90 1014.86 1014.82 1014.78 1014.74 1014.70
1020.78 1020.98 1021.06 1021.02 1020.82 1020.94 1021.14 1021.34 1021.62 1021.78 1021.78 1021.82 1022.10 1022.22 1022.18 1022.26 1022.30 1022.62 1022.82 1022.86 1022.98 1023.06 1023.14 1023.14 1023.18 1023.10 1022.94 1022.86 1022.70 1022.54 1022.34 1022.10 1021.94 1021.82 1021.74 1021.66 1021.66 1021.66 1021.46 1021.26 1021.10 1020.86 1020.06 1019.58 1019.42 1019.30 1018.66 1018.58 1018.22 1018.10 1017.98 1017.94 1017.58 1016.94 1016.86 1016.82 1016.70 1016.62 1016.50 1016.30 1016.10 1015.94 1015.90 1015.70 1015.54 1015.38 1015.22 1015.06 1014.86 1014.74 1014.62 1014.54 1014.50 1014.42
1020.66 1021.06 1021.38 1021.58 1021.62 1021.50 1021.54 1021.62 1021.74 1021.90 1021.94 1021.98 1022.02 1022.10 1022.06 1022.22 1022.34 1022.66 1022.82 1022.82 1022.94 1023.06 1023.06 1023.06 1023.02 1022.94 1022.82 1022.70 1022.54 1022.38 1022.22 1021.98 1021.74 1021.54 1021.38 1021.30 1021.26 1021.26 1021.18 1021.02 1020.74 1020.26 1019.70 1019.34 1019.14 1019.10 1018.74 1018.42 1018.18 1017.90 1017.78 1017.74 1017.22 1017.14 1016.70 1016.70 1016.54 1016.46 1016.30 1016.22 1016.02 1015.82 1015.78 1015.66 1015.54 1015.38 1015.26 1015.14 1014.98 1014.90 1014.78 1014.66 1014.54 1014.46
1020.86 1021.18 1021.46 1021.58 1021.62 1021.66 1021.78 1021.78 1021.78 1021.86 1021.90 1021.98 1021.98 1022.06 1022.18 1022.30 1022.46 1022.58 1022.74 1022.86 1022.90 1022.94 1022.98 1022.98 1022.90 1022.78 1022.62 1022.50 1022.34 1022.14 1021.94 1021.70 1021.46 1021.26 1021.14 1020.98 1020.82 1020.74 1020.62 1020.50 1020.30 1019.98 1019.42 1019.10 1019.06 1018.98 1018.78 1018.34 1018.22 1018.02 1017.70 1017.58 1016.94 1016.98 1016.70 1016.54 1016.46 1016.22 1016.10 1016.02 1015.86 1015.74 1015.70 1015.58 1015.46 1015.38 1015.34 1015.26 1015.10 1014.98 1014.86 1014.74 1014.62 1014.54
1021.14 1021.50 1021.58 1021.66 1021.66 1021.70 1021.78 1021.78 1021.86 1021.90 1021.98 1022.06 1022.06 1022.14 1022.26 1022.30 1022.42 1022.62 1022.66 1022.74 1022.78 1022.82 1022.82 1022.82 1022.70 1022.50 1022.34 1022.22 1021.98 1021.78 1021.58 1021.34 1021.14 1020.94 1020.74 1020.54 1020.38 1020.18 1020.02 1019.86 1019.70 1019.42 1019.06 1018.98 1018.90 1018.74 1018.62 1018.22 1018.02 1017.98 1017.66 1017.42 1017.14 1016.66 1016.70 1016.62 1016.30 1016.02 1015.94 1015.82 1015.70 1015.62 1015.58 1015.50 1015.34 1015.26 1015.26 1015.22 1015.10 1015.02 1014.86 1014.74 1014.66 1014.54
1021.18 1021.34 1021.46 1021.50 1021.62 1021.78 1021.94 1021.98 1021.98 1021.98 1022.06 1022.10 1022.10 1022.18 1022.18 1022.26 1022.38 1022.42 1022.46 1022.50 1022.58 1022.70 1022.70 1022.58 1022.42 1022.18 1021.90 1021.70 1021.50 1021.26 1021.02 1020.86 1020.70 1020.50 1020.30 1020.14 1019.94 1019.78 1019.58 1019.34 1019.14 1018.94 1018.78 1018.70 1018.58 1018.46 1018.30 1018.06 1017.78 1017.62 1017.46 1017.26 1017.10 1016.82 1016.50 1016.06 1015.98 1015.90 1015.74 1015.62 1015.62 1015.46 1015.38 1015.42 1015.30 1015.22 1015.18 1015.18 1015.10 1014.98 1014.86 1014.66 1014.62 1014.54
1021.22 1021.26 1021.38 1021.54 1021.70 1021.78 1021.86 1021.90 1021.98 1022.02 1022.06 1022.06 1022.06 1022.06 1022.10 1022.10 1022.14 1022.18 1022.18 1022.18 1022.34 1022.42 1022.26 1022.10 1021.98 1021.78 1021.46 1021.18 1020.94 1020.78 1020.66 1020.50 1020.38 1020.26 1020.06 1019.86 1019.62 1019.42 1019.18 1018.98 1018.82 1018.62 1018.50 1018.34 1018.22 1018.10 1017.94 1017.78 1017.54 1017.34 1017.18 1016.90 1016.74 1016.30 1016.30 1015.82 1015.78 1015.58 1015.54 1015.42 1015.34 1015.14 1015.06 1015.10 1015.02 1015.06 1015.06 1015.06 1015.06 1014.98 1014.82 1014.70 1014.62 1014.58
1021.38 1021.54 1021.66 1021.70 1021.78 1021.82 1021.78 1021.66 1021.66 1021.70 1021.86 1021.90 1021.90 1021.86 1021.90 1021.90 1021.90 1021.94 1021.98 1022.02 1022.14 1022.02 1021.94 1021.78 1021.58 1021.34 1021.14 1020.98 1020.78 1020.62 1020.50 1020.42 1020.30 1020.06 1019.86 1019.66 1019.46 1019.30 1019.06 1018.82 1018.54 1018.42 1018.26 1018.06 1017.90 1017.74 1017.62 1017.50 1017.30 1017.10 1016.86 1016.62 1016.42 1016.18 1015.94 1015.82 1015.54 1015.38 1015.30 1015.30 1015.10 1015.06 1014.98 1014.86 1014.90 1014.98 1014.98 1014.98 1015.06 1015.06 1014.94 1014.82 1014.66 1014.62
1021.22 1021.34 1021.46 1021.50 1021.58 1021.58 1021.66 1021.74 1021.86 1021.86 1021.90 1021.86 1021.94 1021.98 1022.02 1022.02 1022.02 1022.06 1022.06 1022.02 1021.94 1021.82 1021.70 1021.54 1021.30 1021.10 1020.98 1020.86 1020.74 1020.58 1020.42 1020.22 1020.02 1019.86 1019.62 1019.46 1019.22 1019.10 1018.86 1018.70 1018.34 1018.22 1017.90 1017.70 1017.50 1017.42 1017.34 1017.22 1017.06 1016.90 1016.74 1016.38 1016.18 1015.94 1015.70 1015.58 1015.34 1015.26 1015.14 1015.02 1015.06 1015.26 1014.74 1014.82 1014.82 1014.82 1014.86 1014.90 1014.94 1014.94 1014.86 1014.74 1014.66 1014.58
1021.34 1021.42 1021.54 1021.58 1021.74 1021.82 1021.90 1022.02 1022.10 1022.18 1022.26 1022.26 1022.30 1022.26 1022.26 1022.26 1022.22 1022.14 1022.06 1021.98 1021.90 1021.74 1021.58 1021.38 1021.22 1021.06 1020.94 1020.78 1020.58 1020.38 1020.26 1020.06 1019.82 1019.62 1019.46 1019.30 1019.10 1018.94 1018.78 1018.62 1018.30 1018.02 1017.66 1017.42 1017.26 1017.10 1017.02 1016.90 1016.74 1016.54 1016.38 1016.22 1016.10 1015.74 1015.54 1015.42 1015.34 1015.22 1015.14 1014.98 1014.94 1014.86 1014.78 1014.74 1014.62 1014.54 1014.58 1014.70 1014.74 1014.70 1014.66 1014.66 1014.58 1014.50
1021.46 1021.50 1021.54 1021.70 1021.86 1021.94 1022.02 1022.14 1022.26 1022.38 1022.38 1022.34 1022.38 1022.30 1022.22 1022.18 1022.14 1022.06 1021.98 1021.90 1021.78 1021.62 1021.46 1021.30 1021.14 1020.94 1020.82 1020.62 1020.42 1020.22 1020.06 1019.82 1019.62 1019.42 1019.30 1019.10 1018.98 1018.70 1018.62 1018.42 1018.10 1017.86 1017.62 1017.30 1017.02 1016.78 1016.70 1016.54 1016.38 1016.22 1016.02 1015.86 1015.74 1015.62 1015.62 1015.54 1015.22 1015.06 1015.02 1014.86 1014.82 1014.74 1014.58 1014.50 1014.46 1014.34 1014.42 1014.50 1014.38 1014.42 1014.42 1014.46 1014.42 1014.42
1021.42 1021.58 1021.74 1021.98 1022.06 1022.10 1022.18 1022.26 1022.38 1022.42 1022.46 1022.42 1022.34 1022.30 1022.26 1022.22 1022.14 1022.06 1021.98 1021.86 1021.70 1021.50 1021.38 1021.22 1021.06 1020.86 1020.66 1020.42 1020.14 1019.90 1019.66 1019.38 1019.26 1019.10 1019.02 1018.78 1018.58 1018.50 1018.34 1018.10 1017.70 1017.42 1017.26 1017.02 1016.78 1016.50 1016.30 1016.18 1016.06 1015.86 1015.70 1015.50 1015.30 1015.18 1015.18 1015.14 1014.90 1014.74 1014.66 1014.62 1014.58 1014.46 1014.18 1014.18 1014.06 1014.02 1014.18 1014.14 1014.06 1014.22 1014.30 1014.34 1014.42 1014.38
1021.62 1021.58 1021.74 1022.02 1022.18 1022.30 1022.38 1022.38 1022.46 1022.50 1022.42 1022.38 1022.34 1022.26 1022.26 1022.18 1022.06 1021.94 1021.86 1021.66 1021.50 1021.38 1021.26 1021.10 1020.90 1020.70 1020.46 1020.10 1019.82 1019.62 1019.38 1019.18 1018.90 1018.66 1018.50 1018.42 1018.22 1018.06 1017.86 1017.66 1017.30 1017.06 1016.86 1016.62 1016.42 1016.22 1016.14 1015.98 1015.90 1015.82 1015.58 1015.42 1015.18 1014.66 1014.54 1014.50 1014.62 1014.38 1014.38 1014.26 1014.14 1014.06 1013.90 1013.82 1013.82 1013.86 1013.94 1014.02 1014.10 1014.06 1014.22 1014.42 1014.46 1014.46
1021.90 1021.94 1021.94 1022.18 1022.34 1022.42 1022.42 1022.46 1022.54 1022.54 1022.42 1022.34 1022.30 1022.26 1022.18 1022.06 1021.94 1021.86 1021.70 1021.50 1021.38 1021.26 1021.10 1020.86 1020.62 1020.34 1020.06 1019.78 1019.46 1019.26 1019.02 1018.86 1018.58 1018.34 1018.10 1017.90 1017.74 1017.54 1017.34 1017.14 1016.90 1016.62 1016.42 1016.26 1016.02 1015.86 1015.82 1015.74 1015.74 1015.74 1015.58 1015.26 1015.14 1014.74 1014.34 1013.86 1013.86 1013.90 1014.06 1013.90 1013.74 1013.66 1013.58 1013.54 1013.58 1013.62 1013.74 1013.94 1013.98 1013.98 1014.06 1014.10 1014.42 1014.50
1021.94 1022.14 1022.22 1022.30 1022.46 1022.54 1022.50 1022.54 1022.58 1022.46 1022.34 1022.26 1022.22 1022.18 1022.14 1021.98 1021.74 1021.58 1021.42 1021.30 1021.22 1021.06 1020.86 1020.62 1020.34 1020.02 1019.70 1019.42 1019.14 1018.86 1018.66 1018.42 1018.14 1017.86 1017.66 1017.38 1017.22 1017.10 1016.90 1016.58 1016.42 1016.18 1016.02 1015.70 1015.62 1015.50 1015.50 1015.50 1015.42 1015.46 1015.30 1015.06 1014.90 1014.62 1014.10 1013.70 1013.42 1013.34 1013.50 1013.62 1013.54 1013.42 1013.42 1013.42 1013.50 1013.58 1013.62 1013.70 1013.90 1013.90 1013.86 1014.14 1014.46 1014.54
1022.02 1022.26 1022.30 1022.46 1022.58 1022.66 1022.70 1022.66 1022.50 1022.38 1022.30 1022.26 1022.18 1022.06 1021.94 1021.78 1021.58 1021.38 1021.14 1021.02 1020.82 1020.62 1020.38 1020.18 1019.86 1019.58 1019.30 1019.02 1018.78 1018.46 1018.22 1017.94 1017.70 1017.46 1017.22 1017.02 1016.86 1016.66 1016.46 1016.18 1015.90 1015.74 1015.50 1015.26 1015.18 1015.10 1015.06 1015.06 1015.06 1015.02 1014.94 1014.78 1014.62 1014.34 1014.14 1013.50 1013.34 1013.22 1013.22 1013.38 1013.46 1013.22 1013.30 1013.42 1013.46 1013.46 1013.62 1013.82 1013.86 1014.06 1014.10 1014.26 1014.50 1014.66
1022.18 1022.26 1022.42 1022.54 1022.66 1022.74 1022.66 1022.58 1022.54 1022.38 1022.30 1022.18 1022.06 1021.90 1021.70 1021.50 1021.26 1021.06 1020.86 1020.70 1020.46 1020.22 1019.94 1019.66 1019.38 1019.10 1018.86 1018.58 1018.38 1018.14 1017.86 1017.58 1017.34 1017.06 1016.82 1016.62 1016.46 1016.22 1015.98 1015.78 1015.54 1015.22 1015.14 1014.94 1014.78 1014.66 1014.66 1014.66 1014.58 1014.50 1014.42 1014.38 1014.22 1013.98 1013.78 1013.74 1013.50 1013.22 1013.06 1013.06 1013.10 1013.18 1013.22 1013.22 1013.22 1013.34 1013.70 1013.94 1014.30 1014.42 1014.66 1014.82 1014.86 1014.90
1022.38 1022.46 1022.58 1022.70 1022.70 1022.70 1022.62 1022.58 1022.38 1022.30 1022.22 1022.02 1021.86 1021.74 1021.62 1021.38 1021.14 1020.90 1020.66 1020.42 1020.14 1019.86 1019.58 1019.26 1018.98 1018.70 1018.42 1018.18 1017.94 1017.66 1017.42 1017.22 1016.94 1016.66 1016.42 1016.18 1015.94 1015.78 1015.58 1015.34 1015.18 1014.94 1014.78 1014.58 1014.42 1014.18 1014.14 1014.02 1013.98 1013.90 1013.86 1013.74 1013.62 1013.50 1013.46 1013.46 1013.34 1013.14 1012.98 1012.94 1013.02 1012.98 1012.90 1013.02 1013.14 1013.34 1013.70 1013.94 1014.10 1014.38 1014.82 1014.94 1015.10 1015.26
1022.46 1022.62 1022.74 1022.78 1022.66 1022.62 1022.50 1022.38 1022.22 1022.10 1021.98 1021.86 1021.70 1021.50 1021.34 1021.18 1021.02 1020.74 1020.50 1020.18 1019.82 1019.50 1019.22 1018.90 1018.62 1018.34 1018.06 1017.74 1017.50 1017.34 1017.06 1016.74 1016.46 1016.22 1015.98 1015.74 1015.50 1015.30 1015.10 1014.94 1014.74 1014.54 1014.42 1014.14 1013.90 1013.70 1013.50 1013.30 1013.18 1013.18 1013.22 1013.30 1013.30 1013.42 1013.54 1013.50 1013.30 1012.94 1012.74 1012.66 1012.78 1012.74 1012.66 1012.62 1012.66 1012.94 1013.34 1013.82 1013.98 1014.26 1014.62 1014.90 1015.14 1015.30
1022.58 1022.66 1022.66 1022.62 1022.54 1022.42 1022.34 1022.14 1022.02 1021.98 1021.90 1021.70 1021.50 1021.34 1021.14 1021.02 1020.82 1020.46 1020.10 1019.78 1019.50 1019.18 1018.90 1018.54 1018.22 1017.90 1017.62 1017.34 1017.10 1016.86 1016.70 1016.38 1016.06 1015.78 1015.54 1015.34 1015.10 1014.82 1014.66 1014.50 1014.34 1014.06 1013.98 1013.70 1013.42 1013.10 1012.78 1012.82 1012.86 1012.98 1013.06 1013.18 1013.30 1013.42 1013.22 1013.06 1012.90 1012.58 1012.58 1012.70 1012.78 1012.66 1012.42 1012.34 1012.50 1012.58 1012.78 1013.30 1013.74 1014.26 1014.78 1015.18 1015.22 1015.42
1022.62 1022.54 1022.58 1022.62 1022.42 1022.22 1022.14 1022.06 1021.98 1021.90 1021.74 1021.54 1021.38 1021.18 1021.06 1020.86 1020.54 1020.14 1019.82 1019.46 1019.14 1018.86 1018.50 1018.18 1017.86 1017.58 1017.26 1016.98 1016.70 1016.46 1016.26 1015.94 1015.62 1015.34 1015.10 1014.86 1014.66 1014.46 1014.18 1013.94 1013.74 1013.54 1013.42 1013.14 1012.86 1012.70 1012.54 1012.58 1012.70 1012.78 1012.86 1012.94 1012.94 1012.98 1012.90 1012.58 1012.50 1012.50 1012.66 1012.78 1012.94 1012.90 1012.82 1012.70 1012.70 1012.98 1013.26 1013.34 1013.46 1013.54 1013.74 1013.98 1014.50 1015.14
1022.50 1022.58 1022.58 1022.38 1022.18 1022.18 1022.06 1022.02 1021.90 1021.78 1021.62 1021.46 1021.26 1021.06 1020.90 1020.62 1020.26 1019.86 1019.58 1019.22 1018.86 1018.54 1018.22 1017.90 1017.54 1017.26 1016.94 1016.62 1016.34 1016.10 1015.82 1015.50 1015.18 1014.94 1014.66 1014.38 1014.14 1013.94 1013.74 1013.50 1013.30 1013.14 1012.98 1012.78 1012.58 1012.38 1012.26 1012.26 1012.30 1012.46 1012.54 1012.54 1012.50 1012.58 1012.50 1012.46 1012.46 1012.42 1012.58 1012.86 1013.02 1013.06 1013.22 1013.30 1013.30 1013.42 1013.58 1013.74 1013.86 1013.94 1013.98 1014.14 1014.18 1014.10
1022.58 1022.46 1022.26 1022.18 1022.18 1022.10 1022.02 1021.94 1021.86 1021.70 1021.54 1021.30 1021.06 1020.78 1020.54 1020.30 1020.02 1019.66 1019.30 1018.98 1018.62 1018.30 1017.94 1017.62 1017.26 1016.94 1016.62 1016.30 1016.06 1015.74 1015.38 1015.02 1014.78 1014.50 1014.22 1013.94 1013.70 1013.46 1013.26 1013.10 1012.94 1012.74 1012.58 1012.38 1012.34 1012.14 1012.02 1011.98 1011.98 1012.14 1012.18 1012.14 1012.18 1012.18 1012.14 1012.22 1012.22 1012.34 1012.66 1012.86 1013.10 1013.26 1013.38 1013.42 1013.54 1013.78 1014.02 1014.30 1014.38 1014.26 1014.30 1014.34 1014.38 1014.46
Wind_Speed
4 4 4 4 3 3 2 3 4 3 3 3 3 3 5 4 5 2 4 2 1 3 3 4 3 6 6 6 6 6 6 6 7 5 5 6 5 6 7 7 7 7 6 7 8 9 9 9 10 11 11 11 11 11 11 11 11 12 13 18 19 19 16 14 17 20 20 21 19 17 17 16 14 15
4 4 4 4 4 2 3 3 3 3 3 3 4 3 2 4 4 2 2 2 3 1 3 2 3 5 6 6 5 4 5 8 8 6 5 5 5 8 6 4 4 5 6 7 9 10 10 11 11 11 11 12 12 12 11 11 12 11 11 13 14 16 15 19 18 19 21 21 20 19 18 17 16 18
4 4 4 3 4 3 4 4 4 3 3 4 2 4 4 4 2 2 2 1 2 1 1 1 1 3 4 5 4 5 5 7 7 5 6 5 9 10 7 9 7 6 6 7 8 9 10 11 11 11 11 12 12 12 12 12 12 12 12 12 12 14 16 15 17 21 22 18 20 21 19 18 18 18
4 4 4 3 3 3 4 4 4 4 4 3 4 3 4 3 2 3 1 0 5 2 1 2 3 3 3 4 4 4 5 6 7 5 5 6 8 6 6 8 11 11 11 9 7 6 7 8 9 10 10 11 11 12 12 12 13 12 12 12 12 13 14 13 16 19 19 20 21 19 19 19 19 18
3 3 3 1 1 2 4 3 4 5 5 4 5 4 5 6 4 3 1 1 5 5 1 2 3 5 3 3 3 5 5 6 6 6 4 4 5 5 6 6 9 11 11 9 8 7 6 6 7 7 8 9 10 10 11 11 12 12 12 12 12 13 13 12 13 16 19 17 16 18 18 20 20 18
2 3 3 1 1 2 3 4 4 4 4 4 5 6 5 6 6 3 4 1 1 5 5 6 6 5 5 6 5 7 8 8 7 9 8 6 5 6 6 7 7 12 13 12 10 9 9 9 8 8 8 8 8 9 9 10 11 11 12 12 12 12 13 13 13 13 15 16 17 18 19 19 18 18
4 4 4 4 3 2 3 3 3 3 4 3 5 4 4 5 4 4 3 3 3 4 5 2 5 5 6 5 8 8 7 7 7 8 8 8 7 6 6 7 6 10 12 11 8 6 7 7 8 8 8 8 8 9 9 10 10 11 11 12 12 12 13 13 13 13 13 14 15 16 17 17 18 19
5 5 4 4 4 3 3 2 3 3 3 4 3 4 3 4 5 4 4 4 2 1 4 4 4 4 6 5 6 7 7 8 8 6 7 7 7 7 8 7 7 9 13 11 10 9 8 9 10 11 11 10 9 9 9 9 10 10 11 11 12 12 12 13 13 14 14 14 15 16 16 17 17 20
6 5 5 5 4 4 4 2 3 3 4 3 5 5 5 5 3 3 4 3 3 3 4 5 2 4 4 3 5 6 9 10 8 6 7 7 7 8 7 6 7 11 14 13 13 13 13 14 13 14 13 12 10 9 9 9 9 9 10 10 10 11 12 12 13 13 14 14 15 15 16 17 19 22
5 6 5 6 6 5 5 4 4 4 4 4 4 4 4 3 4 5 5 5 5 5 4 4 6 4 6 7 4 5 7 7 7 8 8 7 7 8 10 9 8 6 6 6 8 10 11 13 14 15 14 12 11 11 11 10 9 9 9 9 9 10 10 11 11 12 13 14 15 15 16 16 18 22
6 6 5 5 6 6 6 6 6 5 4 5 4 4 3 3 3 4 3 4 4 4 4 3 3 5 3 4 7 7 6 4 3 7 9 10 6 6 6 8 7 5 7 6 7 8 8 11 10 13 14 13 13 13 12 12 12 10 8 8 8 9 10 11 12 13 13 14 14 15 15 15 17 19
6 6 6 6 6 7 6 6 5 6 6 5 5 3 3 3 3 2 2 3 3 3 3 2 4 3 4 6 3 5 7 8 7 6 5 9 9 9 7 4 8 4 4 6 8 9 11 11 13 14 12 12 13 14 11 11 9 8 8 9 10 10 11 12 12 13 14 14 14 15 16 17 17 17
6 6 6 6 6 6 8 9 8 7 7 5 5 3 3 3 2 2 2 2 2 2 3 4 2 4 5 5 7 9 7 7 8 7 4 5 6 8 10 8 3 1 5 5 5 6 6 8 9 8 9 9 13 13 14 10 10 11 11 12 12 11 11 11 12 13 13 14 15 15 16 17 18 18
6 7 6 6 10 11 11 11 11 10 9 8 5 5 4 3 2 1 0 1 2 1 4 3 4 6 6 5 4 5 5 5 6 7 6 8 9 9 9 9 2 2 4 6 8 7 5 6 7 6 8 9 9 8 9 9 13 15 16 14 12 12 12 12 11 12 13 14 15 15 16 17 18 18
8 5 6 6 9 10 9 10 12 10 9 9 8 8 7 6 3 1 0 1 0 1 2 3 3 3 6 6 3 4 6 5 5 5 4 6 8 8 9 12 8 1 5 6 7 8 5 4 7 7 7 7 7 7 9 15 17 18 18 19 17 15 15 15 13 12 13 13 15 15 16 16 17 17
8 9 7 5 5 6 8 8 8 7 8 9 9 9 8 7 5 4 3 2 1 1 3 4 4 3 5 6 4 5 3 6 5 5 5 5 6 8 8 7 9 6 6 7 9 11 4 3 5 7 6 6 6 8 12 16 16 17 17 17 19 19 18 17 16 15 14 14 14 15 15 15 15 15
8 7 7 6 5 5 10 8 7 6 4 5 6 7 6 5 6 5 3 4 4 3 3 4 5 3 3 4 4 1 4 4 6 6 6 5 5 5 8 8 9 8 4 7 9 13 7 4 4 6 6 6 6 8 10 14 15 16 16 17 17 18 18 18 17 16 16 16 15 13 13 14 13 13
8 8 8 7 5 3 5 4 6 4 4 4 4 3 3 2 3 4 5 6 7 5 5 4 5 3 0 4 4 4 3 3 5 5 6 5 6 7 9 8 9 9 5 7 7 10 7 4 5 6 6 6 6 6 9 13 14 15 16 15 16 16 16 15 14 13 13 14 13 12 10 10 11 12
8 7 6 6 6 5 4 4 5 5 4 3 2 2 2 1 1 1 1 1 1 1 2 3 4 4 3 2 3 3 3 3 3 4 5 6 7 8 8 8 7 7 4 5 3 10 6 3 6 6 6 6 6 6 9 15 15 14 12 13 13 13 13 12 11 10 10 10 10 10 9 9 10 10
3 4 5 6 5 4 4 4 5 3 2 2 2 2 2 2 2 1 2 5 6 4 3 1 0 1 2 4 4 5 5 5 4 4 4 4 5 8 9 11 7 7 4 5 6 7 6 1 7 9 5 5 6 6 6 10 11 10 11 11 11 11 12 10 8 7 7 8 8 8 8 7 7 7
5 5 6 5 6 5 4 5 8 8 8 5 5 4 3 3 3 3 2 2 3 3 2 1 2 3 5 7 8 8 8 6 5 4 5 6 4 7 10 11 7 8 3 3 4 7 10 3 5 7 5 4 4 5 6 5 6 9 10 10 10 10 9 6 5 3 1 1 2 3 4 4 5 6
6 5 8 7 7 8 6 7 10 8 7 6 5 4 3 2 2 3 2 2 3 5 6 7 7 8 9 10 11 10 10 10 6 3 6 5 4 7 6 10 8 8 5 6 7 5 6 3 3 5 4 4 3 4 5 3 5 7 8 10 9 9 11 10 8 7 5 4 2 1 3 4 4 3
6 5 6 9 9 8 8 11 10 10 8 5 4 4 3 0 2 4 1 1 3 4 5 5 5 5 7 5 5 7 11 12 9 5 6 6 5 6 7 7 8 9 2 2 0 5 5 5 3 3 7 6 3 5 1 5 5 4 4 6 5 5 8 8 7 8 8 7 6 4 2 1 3 2
5 5 5 7 12 13 12 11 10 8 7 5 4 4 2 1 3 2 2 2 2 3 3 5 4 5 5 6 5 5 6 7 5 7 6 6 6 6 7 7 6 8 6 3 5 8 7 5 7 3 6 7 4 1 3 4 3 4 4 5 5 4 4 6 5 6 7 7 8 9 8 6 2 2
5 5 5 4 6 10 9 9 8 7 6 5 4 3 2 3 2 2 1 3 4 3 3 3 4 5 5 5 5 6 6 7 7 7 6 6 6 6 7 7 8 8 7 6 7 5 7 5 9 6 5 3 5 6 2 2 4 5 4 4 5 5 3 4 2 4 4 6 6 7 7 8 7 4
5 6 5 4 5 7 6 6 6 5 5 4 2 2 4 3 3 2 2 3 3 3 4 5 5 6 6 6 6 6 6 7 7 7 7 7 7 7 7 8 9 9 8 6 8 8 9 8 7 8 7 8 8 5 7 3 4 7 4 4 4 4 2 3 3 3 2 3 4 4 5 6 5 5
5 4 4 3 4 5 4 5 4 4 4 2 2 3 4 5 4 2 2 2 3 4 4 4 6 6 6 6 6 6 7 7 7 7 7 8 8 8 8 8 8 10 9 8 7 8 8 9 6 8 9 8 10 8 7 6 4 3 5 4 4 4 3 2 3 5 3 3 3 5 5 4 5 5
6 5 4 3 5 4 3 2 2 3 2 2 4 4 5 5 3 1 1 2 3 3 4 5 6 6 6 6 6 6 7 7 7 7 7 7 8 8 8 9 10 9 9 8 8 8 8 9 8 8 9 9 9 9 9 6 5 4 7 3 4 5 4 3 4 3 2 2 3 3 2 3 2 2
4 4 4 3 2 3 3 3 3 2 2 2 3 3 4 2 0 1 1 3 3 4 5 6 6 6 6 6 7 6 6 5 5 5 6 6 7 8 8 9 8 8 7 7 8 8 8 8 9 8 8 8 9 9 8 9 6 6 4 7 6 3 3 4 5 4 3 2 3 2 2 2 2 1
9 8 6 5 3 3 2 3 4 4 3 3 3 2 2 0 1 1 3 3 4 6 6 6 6 7 6 6 6 6 5 5 7 6 6 6 6 6 7 7 7 6 7 7 8 8 8 8 8 9 9 9 8 10 8 8 8 6 5 6 6 4 4 5 3 3 2 3 3 1 3 2 2 2
5 6 5 5 6 7 9 7 5 5 4 3 5 4 3 3 3 3 3 5 6 6 6 6 6 6 6 6 5 6 7 7 7 6 6 6 7 6 7 8 8 7 7 7 7 7 7 7 8 9 10 9 8 8 8 8 9 7 6 6 4 4 2 1 3 4 3 3 2 1 1 1 0 1
4 5 6 7 6 6 6 5 5 4 4 3 3 3 3 4 3 4 6 5 4 5 6 6 6 6 6 6 7 7 6 7 7 6 6 6 7 6 7 7 8 7 8 7 6 6 7 8 8 8 9 8 9 8 6 6 6 5 5 4 5 5 4 5 5 5 4 3 1 1 1 0 1 0
4 5 6 5 5 5 4 4 4 4 4 5 3 3 4 4 5 5 5 6 6 6 6 7 7 7 7 7 6 7 7 7 7 6 6 6 7 7 6 9 9 9 9 9 8 7 6 7 8 9 8 7 7 7 7 7 7 6 7 6 5 7 6 6 6 6 2 2 3 1 2 1 0 1
6 5 5 4 4 4 4 4 3 2 2 3 5 4 4 4 5 5 5 5 6 6 6 7 7 7 7 7 7 7 8 8 7 7 7 7 7 8 8 9 9 9 9 9 8 8 7 6 6 7 7 7 7 8 8 8 9 7 6 6 6 8 7 6 6 5 5 4 3 3 2 2 1 0
5 5 5 5 4 3 2 2 2 2 3 4 5 5 5 5 5 5 6 6 6 6 6 7 7 7 7 8 7 8 8 8 8 8 7 7 7 8 9 9 9 8 8 8 8 7 6 7 6 6 6 6 7 7 9 10 8 8 6 7 7 8 8 6 5 5 5 4 3 3 2 1 1 0
5 4 5 3 2 1 2 1 2 2 3 3 4 5 5 6 5 5 6 6 6 6 7 7 7 7 7 8 8 8 8 8 8 8 8 7 7 8 8 9 9 9 8 8 8 7 6 7 6 7 8 7 6 8 5 11 14 8 8 6 6 6 6 6 5 4 4 4 3 4 3 3 2 1
5 3 3 2 0 0 0 1 2 3 3 4 4 4 5 6 6 6 6 5 6 6 7 7 7 8 8 8 8 8 8 8 9 8 8 8 8 8 9 9 9 9 9 8 7 7 6 7 6 7 8 8 8 8 6 2 11 14 7 7 6 5 6 4 3 4 5 5 4 5 4 3 2 2
3 2 2 1 1 1 2 2 2 2 4 4 5 5 6 6 6 6 6 6 7 7 7 7 7 8 8 8 8 8 8 8 8 8 8 8 8 8 8 9 9 8 8 8 7 7 6 7 7 7 8 9 8 8 6 3 2 4 8 7 6 6 3 4 4 5 3 1 2 1 2 3 2 1
4 3 2 1 1 1 2 2 2 3 5 5 5 5 6 6 7 8 8 8 8 8 8 8 8 8 8 8 8 8 8 8 8 8 8 8 8 9 9 9 9 8 8 8 7 7 6 7 8 8 8 9 9 7 4 4 4 4 5 7 6 6 4 5 6 4 5 4 4 4 5 4 6 9
2 2 2 2 1 1 2 2 3 3 5 5 5 5 6 7 8 8 8 8 8 8 8 8 9 9 8 8 8 8 8 9 9 9 8 8 8 9 9 8 9 9 8 8 8 7 7 8 8 8 8 8 8 7 6 5 5 3 4 3 6 7 6 4 5 5 4 4 6 7 6 4 3 1
4 3 2 2 0 1 1 2 2 4 5 6 6 5 6 7 8 8 8 9 8 9 8 8 8 9 8 8 8 8 9 8 8 8 9 9 9 9 10 10 9 8 8 9 8 8 8 8 8 11 10 6 6 3 3 5 6 5 6 4 3 6 9 10 6 7 5 6 6 7 6 5 5 4
4 3 1 0 0 0 1 3 5 5 5 6 6 6 7 7 7 12 11 11 9 9 8 8 8 8 8 8 8 8 8 8 8 8 8 8 8 8 9 8 8 8 8 9 8 8 6 4 5 5 6 5 5 5 7 6 5 5 2 1 2 5 2 6 6 7 11 11 9 7 5 4 3 5
3 3 1 1 0 1 2 4 5 5 6 6 6 6 7 8 8 9 8 8 8 8 8 8 8 8 8 8 7 7 8 8 8 8 9 8 8 8 8 8 8 8 8 8 8 7 7 5 4 5 5 5 5 6 7 5 5 4 1 1 2 3 5 8 12 12 9 9 8 5 2 4 7 5
3 2 2 0 2 2 3 5 5 6 6 6 7 6 6 7 8 9 8 8 8 8 8 8 8 8 8 8 8 7 7 8 8 8 8 8 8 8 8 8 8 8 7 7 7 7 6 5 5 5 5 5 5 5 7 5 4 4 3 3 2 5 6 5 7 10 11 12 11 10 11 8 5 6
3 3 2 1 1 3 4 5 5 6 6 7 6 6 7 7 8 8 8 8 8 8 8 8 8 8 8 8 7 8 8 9 9 8 8 8 8 8 8 8 7 7 7 7 6 6 5 4 4 4 5 5 4 5 5 5 4 3 4 5 5 4 5 4 6 7 6 6 6 10 10 11 14 18
Wind_Direction
90 75 76 99 74 16 21 44 53 77 75 89 117 130 120 127 108 41 30 304 314 318 344 10 318 23 8 1 355 358 3 5 6 0 0 358 353 353 336 319 313 303 293 284 279 275 268 263 263 265 268 269 267 262 257 252 245 241 231 232 231 230 225 230 227 217 215 217 218 222 225 221 211 210
95 95 73 79 62 19 47 5 354 26 60 69 68 63 103 120 113 155 84 291 235 264 309 24 335 343 353 356 349 4 350 351 1 357 354 347 346 337 337 322 282 273 272 272 271 270 269 265 262 262 265 265 265 263 258 253 253 251 248 244 239 242 234 225 225 228 222 219 213 217 223 219 211 209
97 96 87 74 64 43 49 32 22 12 21 20 54 56 55 45 113 131 123 43 287 186 338 289 308 309 329 345 347 349 346 342 349 348 341 335 333 336 329 326 318 301 276 254 252 257 261 265 270 271 267 267 268 270 272 272 268 262 255 248 245 244 245 246 242 235 227 226 225 221 222 226 220 211
105 104 95 85 81 54 56 36 22 20 16 36 22 39 69 56 70 111 103 184 278 251 201 242 271 297 310 318 2 342 333 334 341 341 332 325 331 335 327 327 326 321 317 312 308 291 273 263 262 265 270 275 278 278 275 270 264 257 253 252 250 246 244 234 236 245 244 231 231 228 224 230 230 221
111 109 108 74 41 68 62 36 23 25 14 14 37 36 42 40 30 48 86 347 300 308 312 315 336 320 354 347 351 345 339 334 334 334 326 328 334 330 328 326 322 322 320 323 319 306 309 304 300 294 287 281 277 271 265 262 261 263 263 257 251 250 250 242 232 234 242 242 233 236 235 234 234 232
148 128 133 138 82 74 87 45 29 17 33 29 46 32 49 53 38 21 58 353 314 303 329 346 337 344 4 342 344 351 343 337 339 338 335 336 337 332 338 340 334 332 336 348 352 355 345 336 328 314 300 291 286 283 278 272 266 260 256 255 258 256 252 249 246 237 236 240 238 235 234 236 234 231
162 134 141 164 165 120 73 44 39 34 56 63 68 52 44 50 35 33 56 62 6 324 313 312 346 348 347 345 335 339 338 336 337 337 338 341 340 347 352 355 345 348 351 356 1 352 336 329 320 309 302 300 297 291 286 283 277 271 266 261 254 252 255 256 252 250 248 247 244 241 240 239 237 236
166 164 147 166 163 132 117 70 60 52 68 60 69 66 48 60 40 28 35 47 49 297 341 314 339 341 347 332 339 339 344 348 345 343 339 349 356 357 360 355 352 344 338 338 339 342 342 342 342 339 333 326 316 305 298 291 283 275 270 266 262 258 252 249 251 250 247 246 246 247 245 243 241 240
177 169 170 176 161 153 137 125 101 93 67 52 57 46 30 43 28 39 46 34 48 30 351 314 296 341 340 334 336 357 355 342 341 352 358 351 354 356 351 355 351 345 345 347 350 353 0 6 3 2 356 350 341 329 321 312 304 294 285 277 275 274 274 275 273 268 261 251 246 246 248 249 247 249
186 179 183 167 165 163 159 167 145 123 117 94 80 65 48 34 30 25 16 23 26 23 1 352 326 10 2 343 346 353 351 339 337 348 343 346 4 2 352 348 345 347 357 358 356 1 4 3 1 359 353 353 357 356 351 344 333 322 313 305 296 290 283 277 273 271 271 273 272 264 255 248 246 249
186 184 184 173 173 175 172 159 157 141 124 118 109 115 109 75 69 47 35 31 28 31 4 336 356 328 352 16 330 340 339 328 4 353 342 338 343 350 353 334 336 342 346 354 2 3 357 353 354 348 345 346 355 356 354 349 342 340 333 317 305 296 287 280 273 267 263 259 256 257 260 263 262 255
187 186 186 182 184 179 173 159 162 148 143 138 122 141 114 105 88 77 60 45 41 32 19 2 323 333 321 341 300 318 344 350 348 12 346 326 332 335 333 325 322 328 349 349 345 347 352 349 344 343 339 340 343 341 340 335 332 338 338 329 317 302 291 284 277 272 265 258 253 251 251 251 251 254
189 189 187 186 178 174 165 162 157 156 151 138 132 147 122 115 99 88 68 72 49 26 23 325 296 317 331 326 336 336 350 348 319 319 347 308 319 323 323 321 298 345 344 333 336 345 350 336 335 330 329 330 335 329 328 321 316 317 316 312 306 300 292 284 278 275 269 262 256 251 249 248 249 249
194 188 185 183 172 163 155 150 145 146 141 135 134 155 149 132 120 108 81 32 39 18 335 307 328 331 314 316 315 306 299 301 307 321 334 328 322 327 316 308 277 342 9 343 333 327 336 329 317 329 324 321 325 318 319 315 314 313 312 309 305 301 296 290 283 274 269 267 261 255 249 247 246 246
193 193 183 176 165 155 150 149 149 149 146 142 139 143 145 151 146 152 190 267 130 286 286 293 326 293 294 297 292 287 295 299 299 295 312 313 320 323 329 318 321 105 16 335 323 311 319 319 313 313 309 308 311 311 309 310 310 310 310 310 309 305 301 296 288 278 272 268 265 259 253 248 245 244
186 186 180 171 159 158 159 151 151 155 158 156 155 156 152 141 135 144 170 219 258 217 266 290 277 271 279 286 303 296 300 302 313 307 313 306 306 309 305 295 294 304 11 335 319 303 316 289 291 300 302 303 299 298 297 299 299 300 301 304 305 305 303 298 294 292 287 278 268 261 254 247 243 240
186 173 164 163 169 168 159 150 157 158 169 180 152 137 130 153 177 200 213 202 209 204 222 242 269 247 261 291 282 287 319 331 314 314 310 306 297 283 285 283 291 300 347 327 308 302 313 310 288 293 298 294 294 294 294 294 298 301 300 299 303 304 304 302 300 298 296 293 289 277 258 246 239 234
182 174 168 164 171 159 155 147 151 161 168 155 141 138 148 181 218 217 217 221 230 221 214 222 245 263 212 286 303 313 323 317 302 310 297 308 301 293 281 287 285 286 299 287 293 286 303 295 300 294 294 289 291 286 290 295 295 296 300 311 316 315 312 308 305 301 298 298 297 294 273 253 239 231
178 169 160 162 160 148 151 156 159 164 172 153 128 136 176 198 289 311 319 320 233 209 230 239 261 293 314 285 287 292 300 271 269 263 273 280 281 280 282 276 256 277 248 255 251 280 303 301 304 290 290 295 291 292 295 292 297 305 319 328 324 317 315 310 305 302 301 299 295 290 277 256 245 240
100 106 111 106 111 135 153 161 148 118 121 118 123 114 77 54 39 47 53 73 88 92 115 143 185 259 278 284 283 285 286 285 272 277 280 288 291 301 304 293 302 284 271 246 257 278 279 252 292 295 288 288 289 290 288 292 304 322 341 337 329 325 322 325 333 328 311 302 299 299 290 275 262 258
117 117 129 133 128 108 90 105 113 121 122 110 106 93 69 46 36 350 350 66 78 76 55 353 311 288 292 296 295 292 284 276 279 289 303 296 298 300 299 292 296 289 302 270 241 269 283 258 261 291 286 278 275 280 279 292 313 329 345 339 330 323 321 337 355 22 69 299 315 324 310 296 284 273
74 62 100 111 106 107 102 92 89 91 96 99 103 104 100 69 9 297 306 338 332 351 354 342 340 336 327 321 319 315 309 306 305 309 296 287 295 284 280 291 301 299 294 263 242 266 260 280 246 277 271 281 249 259 269 298 321 340 334 326 317 328 330 334 342 353 4 22 31 306 262 263 256 232
63 52 60 104 116 117 119 107 99 97 100 110 118 127 121 139 256 262 260 279 320 329 332 323 331 318 308 304 299 292 292 292 293 277 263 278 274 277 282 285 303 306 271 267 283 283 286 305 244 268 303 291 246 235 216 325 312 311 321 318 315 327 324 327 346 353 355 356 356 345 318 270 205 210
56 57 64 76 105 110 106 101 101 106 118 129 150 139 140 177 253 231 184 223 218 253 257 266 264 266 271 279 281 282 283 285 278 276 269 260 252 261 272 274 272 273 287 282 281 278 283 267 282 211 242 285 299 298 317 288 286 298 302 313 316 295 287 302 321 337 347 348 346 342 339 340 316 298
101 86 79 58 74 93 106 119 130 135 131 134 146 153 160 187 193 125 165 273 267 255 264 270 281 280 285 280 276 274 274 272 271 271 268 262 248 247 261 270 270 271 273 267 267 279 290 301 294 292 272 230 273 300 243 249 286 289 288 278 302 291 284 281 308 324 334 329 332 336 335 338 324 305
105 111 111 115 126 128 137 142 141 146 152 165 134 177 202 224 241 255 237 247 273 277 280 284 285 285 286 285 281 275 269 266 266 263 264 264 261 249 238 247 266 277 282 289 304 296 295 289 292 297 294 293 283 265 292 269 268 276 268 275 272 269 288 293 312 306 315 312 321 327 324 338 325 280
107 101 117 144 158 175 180 170 165 172 186 162 225 228 228 244 258 255 254 260 278 286 287 288 283 278 276 277 273 269 266 262 258 257 256 258 258 260 257 255 250 259 273 281 277 279 277 280 280 280 286 284 286 289 275 288 286 287 297 276 274 267 257 253 280 288 294 305 298 306 319 344 7 29
116 132 153 174 188 208 222 215 234 253 219 208 230 242 255 265 265 229 278 287 271 276 283 282 276 272 263 261 267 264 257 257 254 254 256 258 258 259 262 262 265 265 270 272 272 267 269 273 275 268 272 278 279 281 287 263 256 265 279 269 267 265 252 207 244 253 265 282 291 294 317 312 310 332
118 137 138 161 207 253 252 245 229 201 187 219 253 255 256 250 184 205 228 252 260 267 262 258 256 257 254 250 258 262 264 265 273 276 271 265 263 265 267 268 269 273 272 273 273 269 265 266 272 273 268 268 271 273 272 279 281 272 267 291 300 276 259 245 241 251 268 270 271 274 255 249 281 270
118 124 134 140 156 151 113 80 58 47 34 25 32 355 359 76 232 236 238 256 244 248 253 254 254 256 268 272 265 267 275 280 274 271 271 273 274 273 278 281 274 267 264 262 262 264 268 271 272 273 272 266 263 269 269 279 273 269 257 254 268 291 266 259 280 258 269 281 262 259 279 241 221 197
68 65 61 69 73 76 67 65 65 58 31 32 15 357 356 331 290 273 245 248 256 265 266 269 271 275 274 282 293 285 278 275 272 260 272 278 279 280 277 278 281 278 267 258 256 260 266 272 274 276 275 274 268 263 269 264 270 268 259 252 249 249 268 211 242 261 246 243 253 295 317 321 314 210
64 72 72 63 51 51 49 43 37 21 18 22 3 334 318 305 299 286 281 285 278 274 270 276 285 288 288 284 274 276 273 268 269 269 271 270 277 275 282 279 278 279 280 273 266 255 257 263 268 268 266 268 269 271 272 267 268 274 274 266 265 266 263 271 274 265 225 185 200 264 268 252 247 251
63 68 66 57 49 49 63 47 32 15 12 354 341 335 328 325 321 318 323 309 295 289 294 290 287 284 283 281 277 276 276 271 269 265 267 263 269 275 269 272 277 278 280 281 278 269 250 256 253 259 264 265 261 265 270 275 265 257 259 259 261 265 263 251 250 259 196 186 231 209 276 286 200 180
81 71 81 64 65 53 57 49 22 354 342 337 334 323 311 314 313 303 293 284 284 287 285 284 286 283 283 282 281 280 278 280 271 261 257 269 265 270 267 270 269 268 267 271 272 275 274 264 264 262 261 262 259 250 247 254 263 260 252 253 249 261 257 254 249 239 206 206 194 218 275 292 350 66
69 83 82 47 44 40 62 49 347 319 340 331 326 317 312 303 299 297 295 290 290 291 289 288 280 277 278 281 281 281 280 280 278 274 261 255 257 258 263 264 268 267 267 267 266 266 268 270 270 272 268 267 270 262 231 235 258 254 255 246 243 248 256 234 234 227 211 215 161 186 231 310 321 339
54 66 95 72 51 49 52 307 298 305 315 317 312 309 319 309 297 290 289 285 283 285 289 290 290 287 284 282 281 277 276 274 272 271 271 264 263 262 259 260 265 267 266 265 266 264 258 262 256 262 274 273 270 277 277 217 220 235 234 250 240 246 252 247 230 220 206 201 189 170 187 221 210 215
72 62 95 112 193 211 217 259 270 292 299 299 302 297 290 293 293 287 280 283 282 278 279 284 282 282 280 279 278 276 273 273 274 273 270 268 264 264 267 266 262 263 265 262 258 259 248 253 246 246 261 270 269 271 269 277 231 227 213 233 252 245 245 244 224 223 215 191 186 188 180 156 183 207
110 106 106 166 222 257 267 267 284 311 305 302 296 297 291 285 288 293 295 297 294 289 286 282 278 278 278 279 281 280 275 270 269 270 269 268 268 266 263 267 268 264 263 264 258 252 238 241 242 238 244 256 262 263 276 250 270 271 229 221 243 250 223 221 225 218 197 130 144 124 91 124 140 125
129 133 154 181 235 241 274 288 283 312 312 304 301 301 307 313 314 312 309 302 297 292 289 286 284 282 282 279 274 274 276 277 274 271 271 267 264 267 268 267 270 267 266 267 258 249 237 237 236 234 233 246 253 260 252 258 247 251 264 238 231 254 235 208 221 189 149 132 97 74 60 70 82 83
159 141 157 180 233 245 275 294 321 313 308 309 312 309 310 312 310 306 301 298 294 289 286 283 284 284 279 276 275 274 271 270 270 270 269 267 266 264 265 266 266 270 269 267 265 256 239 235 229 230 229 232 238 240 244 251 270 258 260 260 214 221 233 196 207 165 149 137 133 124 129 126 109 347
115 126 203 206 214 302 300 307 309 321 323 306 302 303 308 306 302 297 294 296 292 292 290 286 283 281 280 279 278 277 277 274 269 267 267 267 266 264 264 266 267 263 264 266 261 259 248 238 231 225 226 234 239 266 274 252 249 248 251 249 296 288 249 225 190 166 147 152 142 135 136 136 128 117
151 163 190 217 219 267 313 339 326 315 298 300 304 307 306 301 290 299 298 296 290 285 283 285 285 285 283 281 281 278 274 274 274 272 269 270 269 266 261 258 259 259 257 262 262 260 259 236 232 228 225 224 228 223 241 244 243 251 247 314 313 335 332 185 168 157 151 154 147 135 106 84 87 115
152 150 163 233 233 11 335 320 303 298 298 301 301 297 296 294 293 298 297 295 295 293 290 291 289 287 285 284 282 279 278 276 274 273 272 268 266 266 265 260 258 259 257 260 262 264 264 246 222 217 217 210 216 215 233 226 228 229 181 106 70 46 50 76 94 94 87 81 70 82 116 146 149 164
151 175 206 162 43 325 312 302 300 299 297 295 292 292 289 293 299 301 301 299 300 299 297 294 293 292 290 289 286 280 276 275 276 277 276 273 268 267 266 267 265 263 261 260 264 261 256 246 221 208 212 214 210 204 223 222 221 210 175 134 124 109 99 83 75 71 66 59 69 76 78 82 82 83
189 184 143 56 326 303 300 300 305 303 301 297 296 297 298 298 297 301 301 300 298 299 300 299 300 300 299 296 294 290 287 286 284 279 276 274 271 268 265 264 265 264 262 258 256 262 253 244 227 201 212 220 199 207 217 208 208 160 144 136 126 112 115 119 109 99 87 77 67 93 97 101 103 105